Location: Altavilla Irpina
(41.0000°N, 14.7833°E)
Time: 17:29:12
(UTC+00:00)

Cosmos 405 Rocket - Pass Details

Date: 19 May 2025
Orbit: 413 x 447 km, 81.2° (Epoch: 16 June)

Event Time Altitude Azimuth Distance (km) Brightness Sun altitude
Rises 21:38:39 0° 354° (N) 2,450 7.3 -26.3°
Reaches altitude 10° 21:40:46 10° 358° (N) 1,568 6.0 -26.5°
Enters shadow 21:42:26 26° 8° (N) 910 4.5 -26.6°
